Location: Passau
(48.5830°N, 13.4830°E)
Time: 21:50:51
(UTC+02:00)

S-56A Canister/Altair - Pass Details

Date: 24 May 2024
Orbit: 637 x 2489 km, 38.9° (Epoch: 16 June)

Event Time Altitude Azimuth Distance (km) Brightness Sun altitude
Rises 10:10:28 0° 265° (W) 5,364 11.5 45.9°
Reaches altitude 10° 10:14:39 10° 259° (W) 4,073 11.0 46.6°
Maximum altitude 10:23:52 41° 195° (SSW) 1,822 10.1 47.9°
Drops below altitude 10° 10:30:12 10° 127° (SE) 2,789 11.3 48.9°
Sets 10:32:33 0° 120° (ESE) 3,545 11.6 49.2°
